Golden Triangle, MS

2:33 PM CST on January 16, 2018 (GMT -0600)
Golden Triangle Regional

Weather History for KGTR - December, 2012

Change the Weather History Date:

Tuesday, December 18, 2012

  Actual Average Record
Temperature  
Mean Temperature 50 °F -  
Max Temperature 62 °F 51 °F 69 °F (2006)
Min Temperature 37 °F 32 °F 17 °F (2000)
Degree Days  
Heating Degree Days 16    
Moisture  
Dew Point 39 °F    
Average Humidity 76    
Maximum Humidity 93    
Minimum Humidity 48    
Precipitation  
Precipitation 0.00 in - - ()
Sea Level Pressure  
Sea Level Pressure 29.94 in    
Wind  
Wind Speed 4 mph (South)    
Max Wind Speed 12 mph    
Max Gust Speed -    
Visibility 8 miles    
Events Fog    
Averages and records for this station are not official NWS values.
T = Trace of Precipitation, MM = Missing Value Source: NWS Daily Summary

Daily Weather History Graph

Daily Weather History Graph

Search for Another Location

Airport or City:

Trip Planner

Search our weather history database for the weather conditions in past years. The results will help you decide how hot, cold, wet, or windy it might be!

Date:

Astronomy

Dec. 18, 2012 Rise Set
Actual Time 6:53 AM CST 4:49 PM CST
Civil Twilight 6:25 AM CST 5:17 PM CST
Nautical Twilight 5:54 AM CST 5:48 PM CST
Astronomical Twilight 5:24 AM CST 6:18 PM CST
Moon 10:48 AM CST (12/18) 10:57 PM CST (12/18)
Length of Visible Light 10h 51m
Length of Day
9h 56m
Waxing Crescent, 35% of the Moon is Illuminated
Dec 18
Waxing Crescent
Dec 19
First Quarter
Dec 28
Full
Jan 4
Last Quarter
Jan 11
New

Hourly Weather History & Observations

Time (CST) Temp. Windchill Dew Point Humidity Pressure Visibility Wind Dir Wind Speed Gust Speed Precip Events Conditions
12:35 AM 46.4 °F 45.2 °F 41.0 °F 81% 29.89 in 10.0 mi NNW 3.5 mph - N/A   Clear
12:55 AM 44.6 °F 42.2 °F 39.2 °F 81% 29.90 in 10.0 mi NNW 4.6 mph - N/A   Clear
1:15 AM 44.6 °F 43.1 °F 39.2 °F 81% 29.90 in 10.0 mi NW 3.5 mph - N/A   Clear
1:35 AM 44.6 °F 43.1 °F 39.2 °F 81% 29.90 in 10.0 mi NW 3.5 mph - N/A   Clear
1:55 AM 44.6 °F 43.1 °F 39.2 °F 81% 29.91 in 10.0 mi NW 3.5 mph - N/A   Clear
2:15 AM 41.0 °F - 37.4 °F 87% 29.91 in 8.0 mi Calm Calm - N/A   Clear
2:35 AM 41.0 °F - 37.4 °F 87% 29.91 in 2.5 mi Calm Calm - N/A   Clear
2:55 AM 41.0 °F - 37.4 °F 87% 29.91 in 9.0 mi Calm Calm - N/A   Clear
3:15 AM 39.2 °F - 35.6 °F 87% 29.92 in 3.0 mi Calm Calm - N/A   Clear
3:35 AM 39.2 °F - 35.6 °F 87% 29.92 in 3.0 mi Calm Calm - N/A   Clear
3:55 AM 39.2 °F - 35.6 °F 87% 29.92 in 4.0 mi Calm Calm - N/A   Clear
4:15 AM 39.2 °F - 35.6 °F 87% 29.92 in 2.5 mi Calm Calm - N/A   Clear
4:35 AM 39.2 °F - 37.4 °F 93% 29.92 in 10.0 mi Calm Calm - N/A   Clear
4:55 AM 39.2 °F - 35.6 °F 87% 29.93 in 8.0 mi Calm Calm - N/A   Clear
5:15 AM 37.4 °F - 33.8 °F 87% 29.94 in 0.8 mi Calm Calm - N/A   Unknown
5:35 AM 37.4 °F - 35.6 °F 93% 29.94 in 0.2 mi Calm Calm - N/A   Unknown
6:50 AM 37.4 °F - 33.8 °F 87% 29.96 in 0.5 mi Calm Calm - N/A Fog Fog
7:49 AM 39.2 °F - 35.6 °F 87% 29.98 in 1.0 mi Calm Calm - N/A   Clear
8:45 AM 42.8 °F 41.1 °F 41.0 °F 93% 29.99 in 7.0 mi South 3.5 mph - N/A   Clear
9:45 AM 48.2 °F - 42.8 °F 82% 30.01 in 10.0 mi South 5.8 mph - N/A   Clear
10:45 AM 53.6 °F - 42.8 °F 67% 30.01 in 10.0 mi South 8.1 mph - N/A   Clear
11:50 AM 57.2 °F - 42.8 °F 59% 29.98 in 10.0 mi South 9.2 mph - N/A   Clear
12:45 PM 59.0 °F - 44.6 °F 59% 29.97 in 10.0 mi South 9.2 mph - N/A   Clear
1:50 PM 60.8 °F - 42.8 °F 52% 29.94 in 10.0 mi SSE 11.5 mph - N/A   Clear
2:50 PM 62.6 °F - 42.8 °F 48% 29.93 in 10.0 mi South 9.2 mph - N/A   Clear
3:45 PM 60.8 °F - 42.8 °F 52% 29.93 in 10.0 mi South 11.5 mph - N/A   Clear
5:45 PM 53.6 °F - 41.0 °F 62% 29.93 in 10.0 mi SSE 8.1 mph - N/A   Clear
6:50 PM 51.8 °F - 41.0 °F 67% 29.94 in 10.0 mi South 8.1 mph - N/A   Clear
7:45 PM 50.0 °F - 39.2 °F 66% 29.95 in 10.0 mi South 9.2 mph - N/A   Clear
8:15 PM 50.0 °F - 41.0 °F 71% 29.95 in 10.0 mi South 10.4 mph - N/A   Clear
8:35 PM 50.0 °F - 41.0 °F 71% 29.95 in 10.0 mi South 11.5 mph - N/A   Clear
8:55 PM 50.0 °F - 41.0 °F 71% 29.95 in 10.0 mi South 10.4 mph - N/A   Clear
9:15 PM 48.2 °F - 39.2 °F 71% 29.95 in 10.0 mi South 10.4 mph - N/A   Clear
9:35 PM 48.2 °F - 41.0 °F 76% 29.96 in 10.0 mi South 9.2 mph - N/A   Clear
9:55 PM 46.4 °F 42.4 °F 39.2 °F 76% 29.96 in 10.0 mi South 8.1 mph - N/A   Clear
10:15 PM 48.2 °F - 39.2 °F 71% 29.97 in 10.0 mi South 5.8 mph - N/A   Clear
10:35 PM 46.4 °F 43.5 °F 39.2 °F 76% 29.97 in 10.0 mi South 5.8 mph - N/A   Clear
10:55 PM 48.2 °F - 41.0 °F 76% 29.96 in 10.0 mi South 6.9 mph - N/A   Clear
11:15 PM 48.2 °F - 39.2 °F 71% 29.97 in 10.0 mi SSE 5.8 mph - N/A   Clear
11:35 PM 48.2 °F - 39.2 °F 71% 29.97 in 10.0 mi SSE 5.8 mph - N/A   Clear
11:55 PM 46.4 °F 43.5 °F 39.2 °F 76% 29.97 in 10.0 mi SSE 5.8 mph - N/A   Clear